Location: Falniów
(50.3639°N, 19.9642°E)
Time: 06:19:48
(UTC+00:00)

GEOS 3 Rocket - Pass Details

Date: 18 January 2026
Orbit: 768 x 845 km, 115.0° (Epoch: 17 February)

Event Time Altitude Azimuth Distance (km) Brightness Sun altitude
Rises 04:52:53 0° 151° (SSE) 3,305 7.4 -15.3°
Reaches altitude 10° 04:55:12 10° 156° (SSE) 2,389 6.6 -14.9°
Maximum altitude 05:00:17 54° 234° (SW) 995 3.8 -14.2°
Enters shadow 05:04:17 17° 307° (NW) 1,985 5.1 -13.5°
